Temp
64 64 64 64 63 64 63 63 62 62 62 62 62 62 62 61 62 62 62 62 63 63 63 63 63 63 59 55 53 64 69 67 62 61 58 56 53 51 48 48 49 46 46 48 47 47 46
64 64 64 63 63 63 63 62 62 62 62 62 62 62 61 61 61 61 61 62 62 63 62 63 63 63 56 50 59 63 62 60 61 59 55 56 53 53 51 47 46 47 47 47 47 47 47
63 63 63 63 63 63 62 62 61 62 61 62 61 61 61 60 61 61 61 62 62 62 62 63 63 61 56 54 58 61 62 57 58 57 55 54 54 54 50 46 49 48 45 45 46 46 45
63 63 63 63 63 62 62 62 61 62 61 61 60 60 60 60 60 61 61 61 61 61 62 63 64 57 52 60 58 60 61 58 60 59 58 56 55 54 51 47 48 44 43 39 43 46 45
62 62 62 62 62 62 62 62 61 61 61 61 60 60 60 60 60 60 60 61 61 62 63 64 57 54 52 63 57 57 57 56 56 57 56 63 56 49 48 43 40 40 35 35 42 43 43
62 62 62 62 62 62 62 62 61 61 61 60 60 59 59 59 59 59 60 61 62 62 62 64 63 53 56 53 56 57 56 56 55 54 55 54 48 44 40 41 31 35 33 34 36 40 39
62 62 62 61 61 61 61 61 61 61 60 59 59 58 58 59 59 60 59 57 57 55 56 50 50 51 53 58 56 56 55 54 54 54 45 46 44 37 36 35 38 38 32 32 37 38 38
61 61 61 61 61 61 61 61 60 60 60 59 58 58 58 59 59 60 55 53 48 51 48 52 52 52 54 53 51 55 56 51 50 44 44 44 37 39 43 40 38 36 32 32 38 38 34
61 61 61 61 60 60 60 60 60 60 59 58 58 58 58 58 59 55 51 49 52 50 49 50 52 52 51 53 48 50 52 48 46 42 39 38 38 43 41 37 36 35 32 30 31 35 33
60 60 60 60 60 59 59 59 59 59 58 57 57 58 58 59 58 51 49 51 52 50 43 47 49 51 53 51 47 52 51 48 46 41 38 37 39 40 36 36 36 33 35 35 33 28 24
60 60 59 59 59 59 59 59 59 59 58 57 57 57 58 60 53 51 50 52 51 52 29 48 49 56 52 48 47 49 50 48 42 40 40 37 36 36 36 37 37 35 35 33 31 21 19
59 59 59 58 58 58 58 58 58 58 58 57 56 57 58 54 50 48 51 49 51 41 28 43 48 46 46 47 47 48 48 50 46 41 38 35 37 36 35 37 36 37 33 32 27 26 18
58 58 58 58 58 58 58 58 58 58 57 56 56 56 56 54 50 50 50 50 40 30 46 41 41 44 41 41 44 43 41 34 34 35 32 35 35 34 36 34 35 33 29 20 20 17 21
58 58 57 58 58 58 58 58 58 58 57 56 56 56 54 53 49 50 49 47 33 41 39 43 41 41 38 40 39 40 37 36 33 32 23 28 31 33 34 31 29 29 27 20 16 19 24
57 57 57 57 57 57 57 57 57 57 56 56 56 50 50 51 51 49 48 32 37 38 39 40 41 35 35 38 35 36 34 28 33 35 32 27 33 32 34 32 31 29 25 28 17 18 15
57 57 57 57 56 56 57 57 57 57 56 56 50 49 50 51 48 48 42 39 37 39 40 39 36 36 32 35 34 32 32 33 33 32 29 31 27 31 31 32 31 29 29 24 18 12 14
56 56 56 56 55 55 56 56 57 57 56 56 48 48 52 50 49 44 35 33 37 41 40 37 34 34 33 32 32 31 33 36 35 33 32 25 26 27 29 27 23 24 18 21 23 22 16
56 56 56 55 55 55 55 56 56 56 56 52 44 45 52 49 43 30 34 37 43 38 39 38 36 35 33 32 32 32 34 35 36 36 31 28 24 21 29 20 21 23 22 21 22 16 23
55 55 55 55 54 54 54 55 55 56 56 47 42 42 50 49 36 33 35 38 39 37 37 36 35 37 35 33 31 32 34 36 36 35 28 28 24 18 26 23 23 18 16 16 25 23 21
55 55 54 54 54 54 54 54 54 55 56 47 42 42 44 40 36 34 32 35 36 38 37 38 36 36 34 32 33 31 33 36 36 35 44 38 25 25 26 27 23 17 19 25 25 22 21
54 54 54 54 54 53 53 54 54 54 55 50 39 35 35 32 36 34 34 33 35 36 37 37 35 35 31 28 32 32 33 35 35 41 34 31 22 28 30 30 26 26 21 23 27 29 28
54 54 54 53 53 53 53 53 53 52 55 43 38 36 38 34 36 33 35 31 34 36 35 35 34 36 35 30 35 35 34 33 35 31 31 30 27 24 20 30 28 28 30 28 29 31 31
53 53 53 53 53 53 52 52 52 52 50 39 38 41 38 34 34 31 32 34 34 37 39 40 37 35 35 36 34 37 37 38 38 36 33 30 28 26 26 30 29 25 29 30 33 11 25
53 53 53 53 52 52 52 52 52 52 46 39 38 38 32 29 32 32 34 35 34 35 34 39 37 33 35 37 36 35 32 32 33 34 35 32 28 28 26 27 18 20 18 15 18 24 25
53 53 52 52 52 52 52 52 52 52 49 37 35 34 27 23 29 31 33 33 34 34 33 33 35 34 35 32 27 25 26 28 26 25 26 33 31 26 23 23 26 23 24 22 23 23 27
52 52 52 52 51 51 51 51 51 51 50 37 36 35 31 26 28 31 29 30 27 28 28 32 34 34 33 27 28 19 15 22 22 24 26 31 30 28 25 20 14 19 25 28 28 20 27
51 51 51 51 51 51 51 51 51 51 50 39 36 36 31 25 30 31 26 27 30 26 22 24 26 28 30 24 21 20 17 23 16 17 19 18 16 20 21 20 21 27 30 30 20 20 24
51 51 51 50 50 50 50 50 50 50 50 40 35 37 32 22 29 31 32 28 28 26 19 22 21 23 21 18 23 22 21 18 19 21 17 19 14 13 15 9 13 27 27 24 23 25 27
50 50 50 50 50 50 50 50 50 50 50 43 32 37 37 28 29 32 32 33 32 32 26 22 21 21 29 25 17 16 17 9 8 9 21 12 19 16 21 23 29 31 30 30 31 26 28
MSLP
1018.73 1018.30 1018.02 1017.76 1017.58 1017.28 1017.00 1016.85 1016.42 1016.24 1016.16 1015.78 1015.46 1015.21 1014.94 1014.74 1014.45 1014.25 1014.14 1014.04 1013.90 1013.75 1013.48 1013.33 1013.29 1013.17 1013.03 1013.17 1013.05 1012.65 1012.48 1012.32 1012.16 1012.25 1012.44 1012.46 1012.46 1012.58 1012.99 1013.28 1013.54 1013.84 1014.19 1014.46 1014.80 1015.09 1015.27
1018.93 1018.64 1018.30 1017.96 1017.66 1017.47 1017.30 1016.95 1016.56 1016.44 1016.04 1015.60 1015.37 1015.05 1014.82 1014.48 1014.22 1014.04 1013.90 1013.80 1013.68 1013.64 1013.38 1013.26 1013.15 1013.15 1013.23 1013.34 1012.80 1012.79 1012.67 1012.41 1012.52 1012.46 1012.60 1012.65 1012.71 1012.76 1013.15 1013.58 1013.88 1014.15 1014.38 1014.66 1014.99 1015.29 1015.41
1019.12 1018.89 1018.52 1018.15 1017.92 1017.66 1017.23 1016.91 1016.68 1016.24 1015.98 1015.62 1015.27 1014.90 1014.64 1014.33 1014.08 1013.86 1013.64 1013.54 1013.50 1013.30 1013.28 1013.21 1013.20 1013.20 1013.21 1013.14 1012.85 1012.88 1012.72 1012.72 1012.74 1012.67 1012.75 1012.90 1012.89 1012.93 1013.39 1013.95 1014.21 1014.34 1014.64 1014.92 1015.32 1015.52 1015.67
1019.27 1019.01 1018.69 1018.29 1017.91 1017.62 1017.28 1016.90 1016.50 1016.13 1015.86 1015.63 1015.15 1014.97 1014.55 1014.26 1014.00 1013.80 1013.43 1013.24 1013.15 1013.11 1013.13 1013.06 1013.13 1013.16 1013.08 1012.88 1012.98 1012.94 1012.86 1012.75 1012.79 1012.70 1012.72 1012.91 1012.95 1013.25 1013.82 1014.35 1014.62 1014.99 1015.24 1015.66 1015.73 1015.92 1016.05
1019.48 1019.27 1018.90 1018.46 1018.02 1017.61 1017.25 1016.89 1016.39 1016.10 1015.85 1015.56 1015.16 1014.82 1014.49 1014.21 1013.96 1013.45 1013.12 1012.97 1012.85 1012.90 1012.99 1012.99 1013.09 1013.14 1013.15 1012.98 1013.12 1013.17 1013.05 1013.04 1013.06 1012.91 1012.86 1012.90 1013.10 1014.14 1014.65 1015.14 1015.73 1016.14 1016.41 1016.59 1016.49 1016.85 1016.94
1019.58 1019.26 1018.84 1018.44 1018.05 1017.67 1017.32 1016.89 1016.55 1016.16 1015.78 1015.40 1015.07 1014.69 1014.33 1014.07 1013.56 1013.16 1012.86 1012.79 1012.68 1012.72 1012.96 1012.91 1013.14 1013.57 1013.24 1013.45 1013.36 1013.24 1013.15 1013.06 1013.14 1012.99 1013.15 1013.38 1014.25 1014.99 1015.86 1016.10 1016.88 1016.88 1017.09 1017.30 1017.69 1017.72 1017.60
1019.76 1019.40 1019.03 1018.58 1018.22 1017.76 1017.35 1016.94 1016.50 1016.06 1015.69 1015.29 1014.85 1014.48 1014.14 1013.76 1013.29 1012.96 1012.87 1012.95 1013.50 1013.48 1013.27 1013.41 1013.54 1013.58 1013.54 1013.64 1013.50 1013.38 1013.45 1013.25 1013.18 1013.35 1014.03 1014.38 1015.32 1016.02 1016.53 1016.68 1016.78 1017.06 1017.58 1018.09 1017.94 1018.34 1018.34
1019.86 1019.54 1019.15 1018.68 1018.31 1017.88 1017.41 1016.97 1016.55 1016.10 1015.62 1015.13 1014.72 1014.36 1014.00 1013.50 1013.17 1012.94 1013.07 1013.85 1014.53 1014.84 1014.24 1013.74 1013.59 1013.58 1013.62 1013.75 1013.68 1013.59 1013.52 1013.66 1013.51 1014.09 1014.54 1015.26 1015.98 1016.52 1016.79 1017.08 1017.31 1017.68 1018.17 1018.49 1018.48 1018.92 1019.38
1020.03 1019.76 1019.32 1018.88 1018.37 1017.93 1017.53 1017.02 1016.51 1016.01 1015.61 1015.15 1014.73 1014.28 1013.77 1013.31 1013.11 1013.33 1014.02 1014.72 1014.87 1014.80 1014.53 1013.97 1013.62 1013.59 1013.71 1013.81 1013.97 1013.99 1013.99 1013.98 1014.12 1014.69 1015.31 1015.88 1016.74 1016.88 1017.17 1017.59 1017.94 1018.24 1018.76 1019.27 1020.08 1020.02 1020.24
1020.14 1019.81 1019.39 1019.02 1018.51 1018.00 1017.62 1017.09 1016.56 1016.05 1015.60 1015.14 1014.67 1014.15 1013.70 1013.09 1013.51 1014.19 1014.64 1014.82 1014.81 1014.83 1014.81 1014.16 1013.80 1013.62 1013.70 1013.70 1014.18 1014.24 1014.31 1014.48 1014.79 1015.33 1016.09 1016.77 1017.10 1017.36 1017.76 1018.05 1018.47 1019.05 1019.40 1020.08 1020.92 1021.66 1022.16
1020.27 1019.96 1019.58 1019.18 1018.67 1018.16 1017.74 1017.23 1016.68 1016.05 1015.50 1015.04 1014.66 1014.17 1013.85 1013.01 1013.87 1014.55 1015.26 1014.99 1014.91 1014.91 1015.24 1014.24 1013.74 1013.67 1013.67 1014.05 1014.43 1014.42 1014.57 1014.35 1015.15 1016.03 1016.84 1017.31 1017.77 1018.08 1018.39 1018.52 1018.86 1019.66 1020.11 1020.88 1021.84 1022.94 1023.27
1020.36 1020.19 1019.76 1019.34 1018.87 1018.36 1017.86 1017.31 1016.73 1016.11 1015.49 1015.00 1014.65 1014.21 1013.82 1013.95 1014.41 1015.09 1015.04 1015.01 1015.16 1015.39 1014.96 1014.08 1013.81 1013.80 1013.85 1013.95 1014.26 1014.45 1014.76 1015.04 1015.69 1016.48 1017.27 1018.06 1018.45 1018.71 1018.98 1019.30 1019.63 1020.24 1020.98 1021.80 1022.76 1023.43 1023.79
1020.56 1020.33 1019.99 1019.61 1019.09 1018.47 1017.88 1017.34 1016.70 1016.10 1015.48 1014.98 1014.58 1014.33 1014.00 1014.43 1014.98 1014.92 1015.00 1015.37 1016.01 1015.44 1014.66 1014.54 1014.27 1014.14 1014.28 1014.40 1014.55 1014.84 1015.39 1016.06 1016.70 1017.47 1018.12 1018.66 1018.91 1019.32 1019.61 1020.07 1020.49 1020.98 1022.08 1023.23 1024.02 1024.25 1023.89
1020.80 1020.48 1020.17 1019.78 1019.24 1018.59 1017.98 1017.38 1016.69 1016.01 1015.42 1014.92 1014.52 1014.41 1014.82 1015.06 1015.04 1014.87 1015.14 1015.81 1016.40 1015.44 1015.10 1014.89 1014.75 1014.54 1014.65 1014.84 1015.05 1015.40 1016.01 1016.85 1017.42 1018.03 1019.39 1019.68 1019.62 1020.00 1020.42 1020.84 1021.21 1021.79 1022.43 1023.79 1024.51 1025.01 1024.09
1021.09 1020.77 1020.39 1019.97 1019.41 1018.86 1018.16 1017.44 1016.68 1015.99 1015.39 1014.83 1014.62 1014.95 1015.25 1015.33 1015.13 1015.02 1015.65 1016.99 1016.29 1016.11 1015.93 1015.64 1015.21 1015.14 1015.20 1015.35 1015.72 1015.85 1016.45 1017.23 1017.62 1018.24 1019.13 1019.80 1020.12 1020.65 1021.07 1021.56 1022.29 1022.92 1023.26 1023.47 1024.61 1025.70 1025.04
1021.30 1021.07 1020.68 1020.14 1019.66 1019.04 1018.33 1017.55 1016.69 1015.88 1015.35 1014.89 1015.01 1015.54 1015.70 1015.31 1015.25 1015.48 1016.22 1016.86 1016.89 1016.72 1016.49 1016.29 1016.09 1015.80 1015.91 1015.92 1016.17 1016.47 1016.63 1017.30 1018.06 1018.73 1019.26 1019.92 1020.91 1021.36 1021.96 1022.35 1022.99 1023.18 1023.75 1024.25 1024.95 1025.50 1024.79
1021.66 1021.40 1020.93 1020.38 1019.91 1019.24 1018.50 1017.67 1016.79 1015.92 1015.34 1014.87 1015.35 1015.87 1015.59 1015.35 1015.50 1016.16 1017.51 1017.69 1017.33 1017.24 1017.18 1017.10 1016.81 1016.59 1016.54 1016.59 1016.75 1017.13 1017.18 1017.58 1018.26 1019.35 1019.86 1020.77 1021.52 1022.47 1022.72 1023.23 1023.54 1024.46 1024.51 1024.94 1025.02 1024.76 1024.15
1022.02 1021.67 1021.15 1020.66 1020.17 1019.48 1018.66 1017.78 1016.97 1016.07 1015.19 1014.92 1015.90 1016.49 1015.66 1015.42 1016.67 1018.35 1018.33 1017.86 1017.66 1017.51 1017.45 1017.44 1017.37 1017.28 1017.23 1017.25 1017.35 1017.57 1017.62 1017.77 1018.37 1019.13 1020.38 1021.08 1021.94 1022.73 1022.72 1023.81 1024.30 1024.42 1024.46 1024.32 1024.64 1024.48 1023.89
1022.34 1021.91 1021.51 1020.97 1020.48 1019.76 1018.90 1018.06 1017.20 1016.33 1015.64 1016.01 1016.87 1016.88 1015.78 1015.79 1017.71 1019.02 1018.78 1018.28 1017.95 1017.96 1017.95 1017.99 1017.91 1017.89 1017.99 1018.11 1018.26 1017.92 1017.92 1018.43 1018.82 1019.46 1020.15 1021.05 1022.00 1022.51 1022.71 1024.03 1024.33 1024.45 1024.33 1024.00 1023.93 1023.40 1022.84
1022.64 1022.37 1021.87 1021.38 1020.95 1020.14 1019.26 1018.38 1017.52 1016.65 1015.97 1016.33 1017.69 1018.08 1017.64 1017.93 1019.01 1019.20 1019.27 1018.97 1018.58 1018.33 1018.38 1018.46 1018.57 1018.51 1018.59 1018.68 1018.77 1018.73 1018.68 1018.89 1019.25 1019.69 1020.18 1020.65 1021.63 1021.91 1021.75 1021.81 1022.50 1023.58 1023.42 1023.18 1022.84 1022.73 1021.06
1023.16 1022.71 1022.34 1022.06 1021.46 1020.62 1019.81 1018.82 1017.88 1017.02 1016.19 1016.63 1018.70 1020.03 1020.22 1020.05 1020.04 1019.95 1019.85 1019.67 1019.26 1019.01 1018.93 1018.88 1019.10 1019.36 1019.65 1019.92 1019.57 1019.40 1019.30 1019.28 1019.51 1019.81 1020.40 1021.01 1021.44 1021.06 1020.53 1020.67 1021.25 1021.34 1021.61 1021.86 1021.60 1020.41 1019.95
1023.68 1023.45 1023.00 1022.56 1021.97 1021.38 1020.59 1019.55 1018.41 1017.34 1016.47 1018.06 1020.21 1020.82 1020.95 1021.08 1020.95 1020.62 1020.55 1020.58 1020.18 1019.84 1019.65 1019.57 1019.83 1020.16 1020.44 1020.77 1020.58 1020.53 1020.23 1020.14 1019.93 1020.26 1020.62 1021.09 1020.54 1020.40 1019.77 1019.90 1020.08 1019.74 1020.28 1020.63 1020.06 1019.45 1018.79
1024.42 1023.94 1023.66 1023.34 1022.65 1022.18 1021.49 1020.55 1019.72 1018.40 1017.34 1019.86 1021.33 1021.09 1021.31 1022.22 1021.88 1021.82 1022.22 1021.67 1021.46 1021.02 1020.53 1020.42 1020.62 1020.78 1020.99 1021.22 1021.25 1020.84 1020.58 1020.40 1019.97 1020.04 1020.54 1020.89 1020.84 1020.53 1018.18 1019.10 1019.62 1018.91 1019.15 1019.12 1019.02 1019.04 1019.01
1024.85 1024.50 1024.44 1024.11 1023.52 1022.96 1022.40 1021.81 1021.33 1020.62 1020.29 1021.16 1022.44 1022.28 1022.37 1023.51 1023.09 1023.36 1023.25 1022.86 1022.57 1022.29 1022.07 1021.53 1021.56 1021.78 1021.92 1021.63 1021.15 1020.61 1020.45 1020.12 1020.26 1020.16 1020.48 1020.38 1020.79 1020.54 1019.16 1019.67 1018.99 1018.67 1018.59 1019.08 1019.41 1019.68 1019.75
1025.52 1025.41 1025.10 1024.66 1024.32 1023.89 1023.44 1023.26 1022.70 1022.27 1022.06 1022.41 1022.98 1023.17 1023.67 1024.44 1024.54 1024.24 1024.08 1023.97 1023.53 1023.37 1023.21 1023.06 1022.97 1023.12 1022.71 1022.42 1022.22 1021.62 1020.93 1020.79 1020.73 1020.84 1020.80 1020.82 1020.91 1020.37 1019.98 1019.47 1018.36 1018.80 1018.86 1019.29 1019.22 1020.43 1020.82
1026.34 1026.02 1025.79 1025.56 1025.02 1024.67 1024.40 1024.07 1023.69 1023.12 1022.65 1023.11 1023.70 1023.82 1024.03 1024.93 1025.48 1025.04 1024.79 1024.66 1024.87 1024.83 1024.50 1024.08 1023.75 1023.49 1023.35 1023.59 1023.87 1024.01 1023.24 1022.57 1022.24 1021.84 1021.60 1021.44 1021.34 1021.18 1020.48 1020.02 1019.37 1019.27 1019.33 1019.65 1019.95 1020.62 1021.24
1026.82 1026.69 1026.32 1026.01 1025.73 1025.40 1025.14 1024.87 1024.40 1023.84 1023.47 1023.74 1024.49 1024.55 1024.65 1025.42 1025.62 1025.39 1025.32 1025.45 1025.41 1025.63 1025.96 1025.73 1025.47 1024.79 1024.44 1024.78 1025.09 1025.25 1024.67 1024.01 1023.99 1023.64 1023.20 1023.01 1022.55 1022.15 1021.33 1020.68 1019.65 1019.79 1020.00 1020.25 1020.93 1021.86 1021.73
1027.18 1027.07 1026.91 1026.68 1026.48 1026.07 1025.66 1025.22 1024.77 1024.34 1024.03 1024.33 1025.18 1024.86 1025.25 1025.99 1025.92 1025.62 1025.43 1025.40 1025.78 1026.18 1026.55 1026.55 1026.65 1026.22 1025.78 1025.97 1026.14 1026.21 1025.93 1025.53 1025.46 1024.58 1024.17 1024.20 1023.86 1023.15 1022.24 1021.73 1021.01 1020.52 1020.74 1021.37 1021.49 1021.60 1022.43
1027.78 1027.67 1027.56 1027.34 1026.79 1026.45 1026.03 1025.71 1025.33 1024.88 1024.56 1024.51 1025.33 1025.29 1025.28 1025.81 1026.21 1025.82 1025.39 1025.16 1025.26 1025.58 1026.17 1026.87 1027.25 1026.72 1026.28 1026.52 1026.95 1027.06 1026.94 1026.71 1026.87 1026.33 1024.68 1024.33 1023.56 1023.38 1022.92 1021.47 1020.92 1020.83 1020.88 1021.22 1021.60 1022.16 1022.76
Wind_Speed
8 9 10 10 10 10 11 11 11 11 10 10 9 9 9 9 8 8 8 9 9 9 7 5 5 6 2 2 2 4 8 7 2 2 4 1 2 2 3 3 1 2 1 0 1 1 2
8 9 9 10 10 10 11 11 12 11 11 11 10 10 10 10 9 8 8 9 9 8 6 5 4 3 2 1 0 5 6 3 4 3 2 4 2 2 5 2 2 1 1 1 1 2 2
8 9 10 10 10 10 11 11 12 13 13 12 11 12 12 11 10 9 8 9 8 7 5 3 2 1 2 1 1 5 6 1 2 2 3 1 1 3 3 3 1 1 1 1 5 3 3
8 9 10 10 11 11 11 11 12 12 12 12 12 12 12 12 11 10 8 8 7 5 3 1 2 2 2 0 1 3 6 2 5 2 3 2 0 5 4 1 5 4 5 5 2 8 2
7 8 9 10 11 12 12 12 13 13 13 13 12 12 12 12 11 9 8 8 5 3 1 1 3 3 3 1 1 3 3 2 4 1 2 1 4 4 5 4 5 7 1 2 7 5 4
7 8 10 11 12 13 13 14 14 13 14 14 13 12 12 12 10 9 9 3 1 3 2 2 2 3 1 2 3 3 2 2 3 1 3 6 6 4 5 5 3 3 2 3 5 5 4
7 9 10 11 12 13 14 14 15 15 15 15 14 13 12 11 10 9 3 2 4 4 8 1 1 1 2 6 2 4 3 2 1 6 2 3 6 1 2 1 2 4 1 3 5 2 6
8 10 10 11 12 13 14 15 15 16 16 16 15 13 12 11 10 5 3 5 2 1 1 0 1 0 1 0 1 3 4 2 2 2 1 6 1 3 4 2 2 2 1 5 4 3 1
8 10 11 12 12 14 15 15 16 17 17 17 15 13 13 11 5 5 4 3 1 1 2 1 1 1 1 1 1 4 4 0 3 3 3 5 2 3 2 1 1 2 3 1 2 8 2
9 10 11 13 14 15 16 16 17 17 17 17 15 13 13 10 5 1 3 1 2 1 5 2 1 1 1 2 1 1 2 2 4 4 3 3 1 3 2 2 5 2 3 2 2 5 3
9 11 12 13 15 16 16 17 18 18 16 16 15 13 12 6 6 4 1 2 1 2 4 1 1 1 0 2 0 3 2 2 4 4 5 3 4 2 3 2 3 3 2 1 3 4 4
10 11 13 14 15 15 17 18 19 18 17 15 15 13 7 4 4 1 1 2 3 9 6 1 1 2 2 2 2 1 3 6 3 4 5 2 1 1 1 2 2 3 4 4 4 3 3
10 11 13 14 15 16 18 18 18 18 17 15 12 10 4 1 1 0 2 3 8 6 2 1 1 3 2 2 2 2 3 4 4 3 2 2 1 1 1 3 1 4 5 5 7 5 6
11 12 14 15 17 18 19 19 20 20 18 16 8 3 4 2 1 2 3 7 2 2 3 2 1 2 1 3 1 1 1 2 2 5 4 4 7 3 2 3 6 2 7 7 7 3 4
12 13 14 16 18 19 19 20 21 19 18 13 3 3 3 4 2 2 7 5 7 4 1 4 3 1 2 1 1 2 4 4 5 7 8 5 4 2 4 2 2 3 3 3 8 2 4
13 14 16 18 19 20 20 21 21 20 19 7 3 2 3 5 2 5 7 5 1 1 1 1 2 1 2 3 2 2 2 4 1 1 2 2 3 2 1 2 3 4 1 4 4 1 6
15 16 17 20 21 21 22 22 22 21 19 3 4 4 3 4 3 7 4 4 1 1 1 1 1 2 2 2 1 2 3 3 2 3 4 4 4 1 1 6 8 1 2 3 3 5 6
16 17 19 21 22 23 23 23 23 22 19 7 3 2 3 2 6 2 2 2 0 0 0 0 1 3 4 1 3 4 5 2 4 6 5 1 5 3 7 1 3 2 5 5 6 6 3
17 19 20 21 23 24 24 24 25 23 14 2 3 2 2 4 3 2 3 1 0 1 1 0 1 2 0 2 3 3 2 2 3 3 5 5 2 4 8 5 3 2 4 4 3 3 8
18 19 21 23 23 24 25 26 26 24 13 4 3 3 5 6 1 5 2 2 2 1 2 2 2 2 1 2 2 4 2 3 1 1 3 4 2 8 11 8 6 2 5 6 6 4 4
18 20 22 23 24 26 27 27 28 26 12 4 5 0 2 2 3 3 2 3 3 3 3 2 1 1 2 2 4 4 1 4 1 2 3 4 6 6 8 6 5 8 7 10 12 12 13
19 20 21 23 25 27 28 28 31 30 8 7 3 3 3 2 3 2 4 2 3 4 2 2 1 3 2 3 4 9 5 3 7 1 5 3 6 1 7 9 11 20 12 11 19 18 17
18 21 22 23 25 26 26 29 29 32 12 5 3 2 3 5 3 4 3 4 3 4 4 5 3 2 3 3 4 8 8 7 8 5 8 6 3 3 20 4 6 16 17 18 15 1 8
19 21 21 22 24 25 26 27 27 27 17 4 2 1 4 2 4 3 4 3 5 4 4 5 5 3 3 6 8 7 7 11 9 11 4 7 4 3 11 1 16 5 3 4 3 2 3
19 19 20 22 23 23 25 25 26 24 17 5 3 3 3 2 1 3 7 4 5 6 4 3 4 2 7 5 5 6 5 4 1 2 2 3 4 5 6 8 11 3 3 4 6 5 1
18 19 19 19 21 22 22 24 24 25 20 5 5 2 4 7 1 1 1 3 1 3 6 3 4 5 6 3 3 2 3 3 5 6 3 1 4 4 2 6 6 2 2 4 1 2 5
17 17 18 19 20 21 21 21 21 22 20 5 3 4 4 5 1 1 2 2 0 2 1 3 7 8 4 2 2 1 4 2 2 3 4 4 3 5 7 9 4 3 3 2 1 3 3
17 17 18 17 17 18 18 19 19 19 19 5 0 4 3 3 2 0 0 3 2 2 3 4 5 4 4 4 1 1 2 3 2 3 3 3 2 3 1 3 11 1 2 3 3 4 6
16 16 15 15 16 17 17 18 17 16 16 6 3 3 1 4 3 1 1 2 2 5 4 2 4 1 0 0 2 2 3 2 2 4 3 4 7 3 4 4 1 1 2 4 6 6 2
Wind_Direction
23 23 23 24 19 14 12 4 2 354 339 337 331 327 323 315 313 308 309 307 307 306 309 312 328 349 27 37 297 348 347 348 59 133 61 50 85 113 129 112 62 83 168 89 89 17 257
22 23 22 21 16 9 6 5 5 353 346 343 333 332 330 324 317 312 307 300 301 299 304 311 347 359 68 289 347 358 344 22 30 46 48 32 110 138 103 84 100 138 145 353 46 344 328
23 20 18 17 10 4 7 7 1 357 350 344 337 335 332 326 320 312 303 294 289 305 309 332 360 73 86 237 24 333 11 85 17 46 90 58 104 76 121 106 176 116 49 22 13 10 359
20 14 14 8 7 2 360 359 357 356 349 343 339 330 333 328 317 304 302 296 289 289 299 55 117 82 224 102 243 17 333 63 5 26 94 147 272 102 59 154 26 40 51 10 357 7 11
23 11 6 3 2 2 359 357 358 354 350 344 339 331 330 324 315 312 307 297 268 258 221 160 85 79 285 306 25 306 31 36 302 22 43 84 67 84 37 74 22 9 266 322 322 33 315
17 7 3 1 1 1 359 359 356 353 351 347 340 333 329 323 328 323 317 236 242 130 94 120 72 45 7 276 308 336 9 49 70 59 50 47 47 68 38 63 219 266 341 288 255 338 355
9 3 3 4 0 0 358 356 354 352 349 346 342 336 331 331 338 336 7 60 27 347 47 131 145 251 318 294 281 15 4 13 54 49 66 10 68 221 182 132 103 116 151 252 266 16 339
3 0 2 5 1 358 356 355 352 350 348 348 342 335 330 335 337 12 64 80 75 183 4 63 124 280 261 329 330 353 1 115 83 119 30 26 173 159 112 90 107 119 250 278 282 20 32
5 0 3 1 1 359 354 353 352 351 348 346 341 336 331 331 322 45 76 95 7 314 110 276 197 259 279 6 126 317 14 75 82 108 35 150 138 124 139 104 121 221 193 235 256 326 57
10 5 4 0 360 358 352 350 350 348 344 345 341 341 338 332 59 215 49 34 39 12 66 269 275 293 1 76 359 331 27 85 40 153 117 97 137 148 132 206 135 272 82 78 358 40 276
9 8 6 2 360 357 351 348 346 345 343 344 341 340 345 33 147 64 21 355 10 51 21 276 311 261 55 88 37 16 7 7 134 130 101 236 160 169 193 214 174 180 64 97 103 91 50
18 10 7 4 360 356 350 346 344 343 342 343 339 336 341 23 53 71 9 25 44 45 263 338 345 316 358 37 29 349 35 40 121 97 52 90 23 63 135 80 81 136 96 57 59 91 25
28 18 11 3 359 356 352 347 345 345 343 341 337 336 50 50 146 74 75 55 36 128 338 333 324 29 9 319 352 43 30 5 158 83 250 35 193 107 70 131 91 83 62 332 353 7 223
31 25 14 5 1 359 354 348 346 345 342 339 338 32 11 44 335 107 68 53 184 224 233 358 330 319 267 19 259 358 60 301 201 87 95 153 311 163 16 147 177 133 142 158 226 223 272
34 26 18 9 5 360 356 352 347 345 342 340 66 12 42 339 335 69 75 72 215 202 346 352 317 360 313 330 235 13 207 200 211 179 168 150 263 78 47 85 86 176 184 146 100 54 56
40 28 21 15 8 2 359 355 350 348 347 344 87 52 352 322 1 59 76 222 208 23 354 52 236 113 267 290 342 359 210 230 184 136 153 173 352 18 100 100 41 140 144 66 0 263 258
43 33 25 19 11 6 2 359 353 348 347 327 56 64 266 349 49 49 148 225 320 52 20 17 258 292 246 293 214 248 259 264 134 123 78 126 101 276 89 197 181 58 344 37 121 156 194
44 35 28 22 15 10 6 1 357 353 348 46 89 46 310 42 50 5 134 202 238 245 78 128 160 205 222 256 255 247 238 240 150 150 167 162 146 219 226 331 156 134 200 153 142 249 219
46 40 32 26 18 12 7 3 358 358 3 89 82 254 333 80 108 340 295 311 93 22 290 266 270 210 95 258 289 213 297 31 126 133 170 205 292 355 325 357 23 203 218 163 138 96 197
50 42 36 29 21 15 10 6 1 358 6 79 71 16 340 47 80 119 39 14 343 60 345 356 332 31 15 271 216 300 307 30 210 243 124 142 178 179 234 217 135 207 204 204 154 180 228
51 45 39 33 26 21 14 8 5 1 3 87 23 316 173 314 1 62 60 13 352 356 36 40 30 25 147 325 322 237 233 350 201 223 114 138 218 222 249 251 206 220 187 192 200 215 232
51 46 42 36 31 26 19 13 8 5 15 79 67 43 5 48 334 37 11 6 34 333 5 1 55 358 157 206 246 297 328 203 230 82 180 178 268 173 261 248 246 257 236 212 225 240 252
55 48 42 37 34 30 25 21 14 11 24 80 340 340 111 327 26 62 8 346 41 337 2 76 337 285 264 284 280 257 233 247 255 205 204 177 210 215 272 235 275 263 234 225 242 192 232
54 49 43 38 35 32 29 27 23 24 35 93 24 18 69 341 67 61 3 342 356 352 284 326 32 12 344 305 275 264 250 252 258 262 218 248 204 230 285 21 263 299 226 175 144 65 134
51 47 43 39 36 33 30 28 28 28 34 64 16 54 86 88 28 28 8 2 338 336 356 328 12 325 308 329 340 340 328 353 74 33 9 259 241 261 253 240 281 302 204 162 157 182 227
49 44 41 38 36 33 29 26 24 24 24 66 39 355 86 116 280 241 323 29 331 322 337 347 337 320 20 67 36 11 277 313 322 344 343 235 228 248 303 288 276 273 31 39 334 206 159
48 42 38 34 31 29 26 22 21 22 26 62 28 10 72 101 272 85 137 174 91 58 237 311 331 351 5 42 52 227 277 298 302 301 328 335 342 236 264 273 287 22 360 4 81 264 141
45 38 33 29 24 23 21 19 18 18 20 51 295 16 88 108 279 305 156 149 90 89 142 271 31 336 24 58 349 294 274 269 317 275 217 219 231 249 264 328 283 23 356 255 220 81 98
39 32 26 20 18 14 14 13 10 11 11 45 45 345 15 98 200 306 258 225 192 182 147 349 185 208 17 72 351 1 278 356 154 273 318 311 189 204 207 262 158 282 252 98 75 79 85